Location: Black Forest
(43.4794°N, 75.0081°W)
Time: 03:05:15
(UTC-04:00)

ISS - All Passes

Search period start: 21 October 2014 00:00
Search period end: 31 October 2014 00:00
Orbit: 413 x 416 km, 51.6° (Epoch: 20 October)

Date Brightness Start Highest point End Pass type
(mag) Time Alt. Az. Time Alt. Az. Time Alt. Az.
21 Oct - 14:02:38 10° SSW 14:05:33 28° SE 14:08:29 10° ENE daylight
21 Oct - 15:38:56 10° W 15:42:09 44° NNW 15:45:23 10° NE daylight
21 Oct - 17:16:52 10° NW 17:19:27 20° N 17:22:02 10° NE daylight
21 Oct - 18:54:03 10° NW 18:56:55 26° NNE 18:59:47 10° ENE visible
21 Oct - 20:30:35 10° WNW 20:33:56 82° SW 20:37:16 10° SE visible
21 Oct - 22:09:11 10° WSW 22:10:07 11° SW 22:11:03 10° SW night (unlit)
22 Oct - 13:14:26 10° S 13:16:40 17° SE 13:18:55 10° E daylight
22 Oct - 14:49:43 10° WSW 14:53:03 67° NNW 14:56:23 10° NE daylight
22 Oct - 16:27:29 10° WNW 16:30:11 22° N 16:32:55 10° NE daylight
22 Oct - 18:05:00 10° NW 18:07:41 22° N 18:10:22 10° ENE daylight
22 Oct - 19:41:32 10° NW 19:44:52 62° NNE 19:48:10 10° ESE visible
22 Oct - 21:18:51 10° W 21:21:17 19° SW 21:23:41 10° S visible
23 Oct - 14:00:38 10° SW 14:03:58 75° SE 14:07:18 10° ENE daylight
23 Oct - 15:38:02 10° WNW 15:40:55 27° NNW 15:43:50 10° NE daylight
23 Oct - 17:15:49 10° NW 17:18:23 20° N 17:20:57 10° NE daylight
23 Oct - 18:52:30 10° NW 18:55:42 41° NNE 18:58:54 10° E visible
23 Oct - 20:29:20 10° WNW 20:32:21 31° SW 20:35:20 10° SSE visible
24 Oct - 13:11:44 10° SSW 13:14:54 43° SE 13:18:05 10° ENE daylight
24 Oct - 14:48:34 10° W 14:51:40 34° NNW 14:54:45 10° NE daylight
24 Oct - 16:26:30 10° NW 16:29:03 20° N 16:31:35 10° NE daylight
24 Oct - 18:03:27 10° NW 18:06:28 30° NNE 18:09:28 10° E daylight
24 Oct - 19:40:02 10° WNW 19:43:19 54° SW 19:46:34 10° SE visible
25 Oct - 12:23:05 10° SSW 12:25:52 25° SE 12:28:40 10° E daylight
25 Oct - 13:59:10 10° WSW 14:02:24 48° NNW 14:05:40 10° NE daylight
25 Oct - 15:37:04 10° WNW 15:39:40 21° N 15:42:16 10° NE daylight
25 Oct - 17:14:19 10° NW 17:17:08 24° NNE 17:19:57 10° ENE daylight
25 Oct - 18:50:50 10° WNW 18:54:11 88° NNE 18:57:31 10° ESE visible
25 Oct - 20:28:55 10° WSW 20:30:25 13° SW 20:31:54 10° SSW visible
26 Oct - 11:34:54 10° SSE 11:36:52 15° SE 11:38:50 10° E daylight
26 Oct - 13:09:51 10° WSW 13:13:10 76° NNW 13:16:31 10° NE daylight
26 Oct - 14:47:31 10° WNW 14:50:16 23° NNW 14:53:01 10° NE daylight
26 Oct - 16:25:06 10° NW 16:27:45 21° N 16:30:24 10° ENE daylight
26 Oct - 18:01:40 10° NW 18:04:57 55° NNE 18:08:14 10° ESE daylight
26 Oct - 19:38:49 10° W 19:41:25 21° SW 19:44:00 10° S visible
27 Oct - 12:20:40 10° SW 12:23:58 65° SE 12:27:16 10° ENE daylight
27 Oct - 13:57:56 10° W 14:00:52 28° NNW 14:03:49 10° NE daylight
27 Oct - 15:35:46 10° NW 15:38:18 20° N 15:40:51 10° NE daylight
27 Oct - 17:12:29 10° NW 17:15:38 38° NNE 17:18:47 10° E daylight
27 Oct - 18:49:14 10° WNW 18:52:19 36° SW 18:55:24 10° SSE visible
28 Oct - 11:31:41 10° SSW 11:34:46 37° SE 11:37:53 10° ENE daylight
28 Oct - 13:08:21 10° W 13:11:28 37° NNW 13:14:36 10° NE daylight
28 Oct - 14:46:17 10° NW 14:48:49 20° N 14:51:21 10° NE daylight
28 Oct - 16:23:17 10° NW 16:26:14 28° NNE 16:29:12 10° E daylight
28 Oct - 17:59:49 10° WNW 18:03:08 63° SW 18:06:25 10° SE daylight
29 Oct - 10:42:59 10° S 10:45:37 22° SE 10:48:15 10° E daylight
29 Oct - 12:18:49 10° WSW 12:22:05 54° NNW 12:25:22 10° NE daylight
29 Oct - 13:56:40 10° WNW 13:59:18 21° N 14:01:55 10° NE daylight
29 Oct - 15:34:00 10° NW 15:36:46 23° NNE 15:39:31 10° ENE daylight
29 Oct - 17:10:30 10° NW 17:13:50 78° NNE 17:17:10 10° ESE daylight
29 Oct - 18:48:14 10° W 18:50:07 14° SW 18:52:00 10° SSW visible
30 Oct - 09:54:54 10° SSE 09:56:29 13° SE 09:58:04 10° ESE daylight
30 Oct - 11:29:24 10° WSW 11:32:43 86° NNW 11:36:04 10° ENE daylight
30 Oct - 13:06:58 10° WNW 13:09:45 24° NNW 13:12:33 10° NE daylight
30 Oct - 14:44:37 10° NW 14:47:13 21° N 14:49:49 10° ENE daylight
30 Oct - 16:21:12 10° NW 16:24:27 49° NNE 16:27:42 10° ESE daylight
30 Oct - 17:58:12 10° W 18:00:58 24° SW 18:03:43 10° SSE daylight
